Location: Camp Crooked Creek
(37.9149°N, 85.6607°W)
Time: 15:00:15
(UTC-04:00)

Daily predictions for brighter satellites

Satellite Brightness Start Highest point End
(mag) Time Altitude Azimuth Time Altitude Azimuth Time Altitude Azimuth
Cosmos 2333 Rocket 3.3 19:52:41 10° SW 19:58:16 51° WNW 20:03:53 10° NNE
Cosmos 2233 Rocket 4.2 19:55:10 10° S 20:01:28 83° W 20:07:50 10° N
Spot 2 Rocket 4.2 19:57:18 10° SE 20:01:43 32° ENE 20:06:08 10° N
NOSS 3-2 (C) 3.7 19:56:18 10° S 20:02:02 49° ESE 20:08:12 10° NE
Cosmos 1076 Rocket 4.4 20:00:32 10° NNE 20:04:20 29° ENE 20:08:06 10° SE
Cosmos 2056 Rocket 3.6 20:01:10 10° NNW 20:06:34 64° ENE 20:11:56 10° SSE
Helios 1B rocket 3.2 20:03:37 10° NE 20:07:16 30° E 20:10:53 10° SSE
Cosmos-2242 4.2 20:04:21 10° SE 20:07:40 22° E 20:11:01 10° NE
Cosmos 1484 Rocket 3.2 20:05:21 10° S 20:09:07 68° W 20:13:00 10° NNW
IDEFIX/ARIANE 42P 4.5 20:10:11 10° SSW 20:14:54 34° W 20:19:39 10° NNW
NOAA 12 4.1 20:10:46 10° SSE 20:15:57 68° ENE 20:21:12 10° N
Cosmos 1371 Rocket 4.2 20:10:55 10° NNW 20:16:13 78° WSW 20:21:32 10° SSE
Atlas Centaur 2 3.8 20:10:36 10° W 20:18:36 44° SSW 20:26:04 10° SE
ASTRO E2 3.9 20:17:00 10° WSW 20:20:37 31° S 20:23:33 14° ESE
Cosmos 1408 Rocket 3.9 20:18:06 10° N 20:22:13 40° E 20:26:16 10° SSE
Cosmos 2237 Rocket 3.9 20:18:59 10° SW 20:24:12 37° WNW 20:29:27 10° N
SAR-Lupe-1 4.4 20:23:41 10° S 20:27:13 70° WSW 20:30:47 10° NNW
Cosmos 1766 3.4 20:25:00 10° S 20:28:57 81° W 20:32:57 10° N
Aureole 2 Rocket 3.4 20:24:39 10° SSW 20:29:01 69° WNW 20:33:20 10° NNE
ATLAS CENTAUR R/B 1.9 20:25:03 10° NW 20:29:07 56° WSW 20:32:52 10° SSE
Abrixas 4.0 20:27:37 10° S 20:29:53 20° SE 20:30:14 19° SE
Resurs 01 Rocket 1.7 20:27:27 10° SSE 20:31:49 59° ENE 20:36:12 10° N
ATLAS 5 CENTAUR R/B 1.7 20:27:17 10° SSW 20:31:56 66° ESE 20:36:59 10° NE
HJ-1C 3.4 20:29:14 10° SSE 20:32:31 58° ENE 20:35:51 10° N
Okean 3 Rocket 4.2 20:28:37 10° NNW 20:33:07 62° W 20:37:35 10° S
Resurs 1-3 3.9 20:29:15 10° SE 20:33:26 46° ENE 20:37:38 10° N
Cosmos 1624 Rocket 4.4 20:28:42 10° NNW 20:33:52 66° WSW 20:38:59 10° S
USA 215 3.3 20:34:27 10° NE 20:41:01 83° NW 20:47:33 10° SW
SL-16 R/B 2.9 20:37:49 10° SW 20:43:25 59° WNW 20:49:03 10° NNE
CZ-2D R/B 4.1 20:43:00 26° E 20:44:01 30° ENE 20:47:28 10° N
Meteor 1-29 2.8 20:42:11 10° NNE 20:45:42 75° ESE 20:49:10 10° S
Gbstr 26 Del rocket 4.4 20:45:31 10° S 20:48:32 22° SE 20:48:32 22° SE
Cosmos 1743 Rocket 4.0 20:45:38 10° N 20:49:48 38° ENE 20:51:26 28° ESE
Cosmos 1953 2.1 20:45:58 10° S 20:49:56 78° E 20:53:56 10° N
ISS -1.3 20:48:25 10° S 20:49:31 16° SSE 20:49:31 16° SSE
Helios 1A 3.0 20:51:59 10° S 20:56:10 81° WSW 21:00:22 10° NNW
Nadezhda 4 Rocket 4.0 20:51:38 10° N 20:57:48 57° E 21:03:53 10° SSE
SeaSat 1 2.7 20:56:03 10° NE 21:00:45 42° ESE 21:05:24 10° S
Cosmos 1805 3.4 20:56:57 10° S 21:00:51 77° W 21:04:48 10° N
H-2A R/B 2.9 21:01:10 44° ESE 21:01:50 49° ENE 21:05:37 10° N
GP-B 4.4 20:58:57 10° NNE 21:01:21 24° NE 21:01:21 24° NE
Cosmos 1452 Rocket 3.4 20:57:59 10° NNW 21:03:16 86° ENE 21:07:29 16° SSE
Cosmos 1544 2.9 21:00:01 10° S 21:03:43 75° E 21:07:28 10° N
Cosmos 1092 Rocket 4.2 20:57:50 10° N 21:03:46 45° ENE 21:06:37 28° SE
CZ-4B DEB 2.6 21:06:22 72° ESE 21:06:35 77° ENE 21:09:52 10° N
ALOS 2.1 21:04:18 17° SSE 21:07:51 79° ENE 21:12:32 10° N
SEDSat Delta rocket 4.4 21:03:04 10° WSW 21:09:33 50° S 21:12:12 33° SE
FENGYUN 3A 3.5 21:06:43 13° SSE 21:11:29 81° ENE 21:16:53 10° N
OAO 3 Rocket 3.3 21:07:33 10° W 21:12:17 63° S 21:13:21 48° SE
Cosmos 724 4.4 21:09:02 10° SSW 21:14:56 79° WNW 21:21:02 10° NNE
Cosmos 1634 Rocket 4.1 21:10:39 11° SSE 21:16:22 47° E 21:22:17 10° NNE
Cosmos 1470 4.3 21:24:32 24° NNE 21:24:32 24° NNE 21:26:12 10° NNE
Cosmos 1420 Rocket 3.9 21:21:03 10° NNW 21:26:21 77° ENE 21:27:35 53° SE
Cosmos 1943 4.1 21:22:07 10° S 21:33:10 - NNE 21:25:09 31° SSE
Cosmos 2369 Rocket 2.8 21:24:03 10° N 21:28:54 38° NE 21:28:54 38° NE
Cosmos 1603 4.1 21:24:56 10° SSW 21:30:36 65° WNW 21:36:20 10° NNE
Cosmos 1943 Rocket 3.9 21:32:43 10° N 21:35:15 18° NNE 21:35:15 18° NNE
Cosmos 1269 Rocket 4.4 21:34:09 10° SSW 21:39:23 63° WNW 21:44:37 10° NNE
Cosmos 2195 Rocket 4.5 21:34:48 10° N 21:41:02 58° E 21:41:05 58° E
Cosmos 1048 Rocket 4.3 21:38:23 10° SSW 21:43:40 68° WNW 21:48:56 10° NNE
ASTEX 1 4.2 21:40:52 10° N 21:45:36 51° W 21:50:19 10° SSW
SL-8 R/B 4.0 21:45:33 10° WSW 21:49:42 63° W 21:49:42 63° W
Envisat 4.1 21:53:17 33° NNE 21:53:17 33° NNE 21:56:12 10° N
CENTAUR R/B 2.3 21:46:01 10° SSW 21:51:58 81° ESE 21:53:12 60° NE
Cosmos 1674 4.2 21:49:22 10° NNW 21:51:57 35° NW 21:51:57 35° NW
Cosmos 1627 Rocket 4.4 21:57:19 10° N 22:03:14 81° NNE 22:03:14 81° NNE
Atlas Centaur 2 4.3 22:01:15 10° WSW 22:07:31 24° SSW 22:08:50 23° SSW
ATLAS 5 CENTAUR R/B 4.4 22:13:47 10° W 22:17:10 18° NW 22:20:45 10° N
Cosmos 2369 Rocket 4.4 23:08:24 10° NW 23:10:43 20° WNW 23:10:43 20° WNW
